Weather History for Atka, AK

Change the Weather History Date:

Saturday, April 6, 2013

  Actual Average (PADK) Record (PADK)
Temperature  
Mean Temperature 40 °F -  
Max Temperature 42 °F 39 °F 46 °F (1966)
Min Temperature 37 °F 30 °F 24 °F (1993)
Degree Days  
Heating Degree Days 26    
Moisture  
Dew Point 36 °F    
Average Humidity 87    
Maximum Humidity 93    
Minimum Humidity 81    
Precipitation  
Precipitation 0.00 in - - ()
Sea Level Pressure  
Sea Level Pressure 29.54 in    
Wind  
Wind Speed 16 mph (ENE)    
Max Wind Speed 22 mph    
Max Gust Speed 30 mph    
Visibility 9 miles    
Events      
Averages and records for this station are not official NWS values.
T = Trace of Precipitation, MM = Missing Value Source: NWS Daily Summary

Daily Weather History Graph

Daily Weather History Graph

Search for Another Location

Airport:

Trip Planner

Search our weather history database for the weather conditions in past years. The results will help you decide how hot, cold, wet, or windy it might be!

Date:

Astronomy

Apr. 06, 2013 Rise Set
Actual Time 7:58 AM HADT 9:20 PM HADT
Civil Twilight 7:23 AM HADT 9:55 PM HADT
Nautical Twilight 6:41 AM HADT 10:38 PM HADT
Astronomical Twilight 5:54 AM HADT 11:25 PM HADT
Moon 6:15 AM HADT (4/6) 5:42 PM HADT (4/6)
Length of Visible Light 14h 31m
Length of Day
13h 21m
Waning Crescent, 13% of the Moon is Illuminated
Apr 6
Waning Crescent
Apr 10
New
Apr 18
First Quarter
Apr 25
Full
May 2
Last Quarter

Hourly Weather History & Observations

Time (HADT) Temp. Windchill Dew Point Humidity Pressure Visibility Wind Dir Wind Speed Gust Speed Precip Events Conditions
12:16 AM 39.2 °F 30.5 °F 35.6 °F 87% 29.47 in 10.0 mi East 16.1 mph - N/A   Overcast
12:36 AM 39.2 °F 30.8 °F 35.6 °F 87% 29.47 in - East 15.0 mph - N/A   Overcast
1:36 AM 39.2 °F 32.0 °F 35.6 °F 87% 29.47 in 10.0 mi ENE 11.5 mph - N/A   Overcast
1:56 AM 39.2 °F 31.6 °F 35.6 °F 87% 29.47 in - East 12.7 mph - N/A   Overcast
2:16 AM 39.2 °F 31.2 °F 35.6 °F 87% 29.47 in 10.0 mi East 13.8 mph - N/A   Overcast
2:36 AM 39.2 °F 30.8 °F 35.6 °F 87% 29.47 in 10.0 mi East 15.0 mph 19.6 mph N/A   Overcast
2:56 AM 39.2 °F 31.2 °F 35.6 °F 87% 29.47 in 8.0 mi ENE 13.8 mph - N/A   Overcast
3:16 AM 39.2 °F 31.2 °F 35.6 °F 87% 29.47 in 10.0 mi East 13.8 mph - N/A   Overcast
3:36 AM 39.2 °F 31.2 °F 35.6 °F 87% 29.47 in 10.0 mi ENE 13.8 mph 18.4 mph N/A   Overcast
3:56 AM 39.2 °F 31.6 °F 35.6 °F 87% 29.47 in 10.0 mi ENE 12.7 mph - N/A   Overcast
4:16 AM 39.2 °F 31.2 °F 35.6 °F 87% 29.47 in 8.0 mi ENE 13.8 mph - N/A   Overcast
4:36 AM 39.2 °F 31.6 °F 35.6 °F 87% 29.47 in 8.0 mi ENE 12.7 mph - N/A   Overcast
4:56 AM 39.2 °F 31.6 °F 35.6 °F 87% 29.47 in 10.0 mi East 12.7 mph - N/A   Overcast
5:16 AM 39.2 °F 31.2 °F 35.6 °F 87% 29.47 in 10.0 mi ENE 13.8 mph - N/A   Overcast
5:36 AM 39.2 °F 30.8 °F 35.6 °F 87% 29.47 in 10.0 mi ENE 15.0 mph - N/A   Overcast
5:56 AM 39.2 °F 30.8 °F 35.6 °F 87% 29.47 in 10.0 mi ENE 15.0 mph - N/A   Overcast
6:16 AM 39.2 °F 30.8 °F 35.6 °F 87% 29.47 in 10.0 mi ENE 15.0 mph 18.4 mph N/A   Overcast
6:36 AM 39.2 °F 30.2 °F 35.6 °F 87% 29.47 in 10.0 mi East 17.3 mph - N/A   Overcast
6:56 AM 39.2 °F 30.8 °F 35.6 °F 87% 29.47 in 10.0 mi East 15.0 mph - N/A   Overcast
7:16 AM 39.2 °F 30.8 °F 35.6 °F 87% 29.48 in 8.0 mi ENE 15.0 mph 20.7 mph N/A   Overcast
7:36 AM 39.2 °F 30.8 °F 35.6 °F 87% 29.48 in 10.0 mi ENE 15.0 mph - N/A   Overcast
7:56 AM 39.2 °F 31.2 °F 35.6 °F 87% 29.48 in 10.0 mi East 13.8 mph - N/A   Overcast
8:16 AM 39.2 °F 30.5 °F 35.6 °F 87% 29.48 in 10.0 mi ENE 16.1 mph - N/A   Overcast
8:36 AM 39.2 °F 31.2 °F 35.6 °F 87% 29.49 in 10.0 mi ENE 13.8 mph - N/A   Overcast
8:56 AM 39.2 °F 31.2 °F 35.6 °F 87% 29.49 in 9.0 mi East 13.8 mph 18.4 mph N/A   Overcast
9:16 AM 39.2 °F 31.2 °F 37.4 °F 93% 29.50 in 9.0 mi ENE 13.8 mph - N/A   Overcast
9:36 AM 39.2 °F 31.2 °F 37.4 °F 93% 29.50 in 10.0 mi ENE 13.8 mph - N/A   Overcast
9:56 AM 39.2 °F 30.5 °F 37.4 °F 93% 29.51 in 10.0 mi ENE 16.1 mph - N/A   Overcast
10:16 AM 39.2 °F 30.5 °F 37.4 °F 93% 29.52 in 10.0 mi ENE 16.1 mph - N/A   Overcast
10:36 AM 39.2 °F 30.8 °F 37.4 °F 93% 29.52 in 9.0 mi East 15.0 mph - N/A   Overcast
10:56 AM 39.2 °F 30.2 °F 37.4 °F 93% 29.52 in 10.0 mi ENE 17.3 mph - N/A   Overcast
11:16 AM 39.2 °F 30.2 °F 37.4 °F 93% 29.53 in 10.0 mi ENE 17.3 mph - N/A   Overcast
11:36 AM 39.2 °F 30.2 °F 37.4 °F 93% 29.53 in 10.0 mi East 17.3 mph - N/A   Overcast
11:56 AM 41.0 °F 32.2 °F 37.4 °F 87% 29.54 in 10.0 mi East 18.4 mph 23.0 mph N/A   Overcast
12:16 PM 41.0 °F 32.5 °F 35.6 °F 81% 29.54 in 10.0 mi ENE 17.3 mph - N/A   Overcast
12:36 PM 41.0 °F 32.8 °F 37.4 °F 87% 29.55 in 10.0 mi ENE 16.1 mph 23.0 mph N/A   Overcast
12:56 PM 41.0 °F 32.5 °F 37.4 °F 87% 29.55 in 10.0 mi East 17.3 mph - N/A   Overcast
1:16 PM 41.0 °F 31.9 °F 37.4 °F 87% 29.55 in 9.0 mi East 19.6 mph 25.3 mph N/A   Overcast
1:36 PM 41.0 °F 31.9 °F 37.4 °F 87% 29.55 in 10.0 mi ENE 19.6 mph 24.2 mph N/A   Overcast
1:56 PM 41.0 °F 32.8 °F 37.4 °F 87% 29.55 in 9.0 mi ENE 16.1 mph 23.0 mph N/A   Overcast
2:16 PM 41.0 °F 32.2 °F 37.4 °F 87% 29.55 in 10.0 mi ENE 18.4 mph - N/A   Overcast
2:36 PM 41.0 °F 32.2 °F 37.4 °F 87% 29.55 in 10.0 mi ENE 18.4 mph - N/A   Overcast
2:56 PM 42.8 °F 34.3 °F 37.4 °F 81% 29.55 in 10.0 mi ENE 19.6 mph - N/A   Overcast
3:16 PM 42.8 °F 34.5 °F 37.4 °F 81% 29.55 in 10.0 mi ENE 18.4 mph 23.0 mph N/A   Overcast
3:36 PM 42.8 °F 34.8 °F 37.4 °F 81% 29.56 in 10.0 mi East 17.3 mph - N/A   Mostly Cloudy
3:56 PM 42.8 °F 34.3 °F 37.4 °F 81% 29.56 in 10.0 mi East 19.6 mph - N/A   Mostly Cloudy
4:16 PM 41.0 °F 32.5 °F 37.4 °F 87% 29.57 in 5.0 mi ENE 17.3 mph - N/A   Overcast
4:36 PM 41.0 °F 32.2 °F 37.4 °F 87% 29.57 in 10.0 mi ENE 18.4 mph 23.0 mph N/A   Overcast
4:56 PM 41.0 °F 32.5 °F 37.4 °F 87% 29.58 in 9.0 mi East 17.3 mph - N/A   Overcast
5:16 PM 41.0 °F 32.5 °F 37.4 °F 87% 29.58 in 7.0 mi ENE 17.3 mph 23.0 mph N/A   Overcast
5:36 PM 41.0 °F 31.9 °F 37.4 °F 87% 29.58 in 9.0 mi ENE 19.6 mph 26.5 mph N/A   Overcast
5:56 PM 41.0 °F 31.6 °F 37.4 °F 87% 29.58 in 9.0 mi East 20.7 mph - N/A   Overcast
6:16 PM 41.0 °F 31.9 °F 35.6 °F 81% 29.59 in 8.0 mi East 19.6 mph 25.3 mph N/A   Overcast
6:36 PM 41.0 °F 32.5 °F 35.6 °F 81% 29.59 in 10.0 mi ENE 17.3 mph - N/A   Overcast
6:56 PM 39.2 °F 29.6 °F 35.6 °F 87% 29.60 in 10.0 mi East 19.6 mph 26.5 mph N/A   Overcast
7:16 PM 39.2 °F 29.0 °F 35.6 °F 87% 29.60 in 10.0 mi East 21.9 mph - N/A   Overcast
7:36 PM 39.2 °F 29.3 °F 35.6 °F 87% 29.60 in 10.0 mi East 20.7 mph 24.2 mph N/A   Overcast
7:56 PM 39.2 °F 29.6 °F 35.6 °F 87% 29.60 in 10.0 mi East 19.6 mph 25.3 mph N/A   Overcast
8:16 PM 39.2 °F 29.8 °F 35.6 °F 87% 29.61 in 7.0 mi ENE 18.4 mph 26.5 mph N/A   Overcast
8:36 PM 39.2 °F 29.8 °F 35.6 °F 87% 29.62 in 5.0 mi ENE 18.4 mph 25.3 mph N/A   Overcast
8:56 PM 39.2 °F 29.0 °F 35.6 °F 87% 29.62 in 10.0 mi East 21.9 mph 26.5 mph N/A   Overcast
9:16 PM 39.2 °F 29.8 °F 35.6 °F 87% 29.64 in 6.0 mi ENE 18.4 mph 28.8 mph N/A   Mostly Cloudy
9:36 PM 39.2 °F 29.8 °F 33.8 °F 81% 29.65 in 8.0 mi ENE 18.4 mph 25.3 mph N/A   Overcast
9:56 PM 39.2 °F 30.5 °F 33.8 °F 81% 29.65 in 10.0 mi ENE 16.1 mph 23.0 mph N/A   Overcast
10:16 PM 39.2 °F 30.2 °F 33.8 °F 81% 29.67 in 9.0 mi East 17.3 mph 27.6 mph N/A   Overcast
10:36 PM 37.4 °F 28.5 °F 33.8 °F 87% 29.68 in 7.0 mi ENE 15.0 mph 25.3 mph N/A   Overcast
10:56 PM 39.2 °F 30.2 °F 33.8 °F 81% 29.68 in 8.0 mi ENE 17.3 mph 25.3 mph N/A   Overcast
11:16 PM 37.4 °F 26.6 °F 33.8 °F 87% 29.69 in 7.0 mi ENE 21.9 mph 29.9 mph N/A   Overcast
11:36 PM 37.4 °F 27.8 °F 33.8 °F 87% 29.70 in 7.0 mi ENE 17.3 mph 27.6 mph N/A   Overcast
11:56 PM 37.4 °F 28.2 °F 33.8 °F 87% 29.70 in 8.0 mi ENE 16.1 mph 25.3 mph N/A   Overcast